This is the latest recevied weather packets stored in our database for station/object W2JBO-5. If no packets are shown the sender has not sent any weather packets the latest 10 day(s).
| Time | Temp. | Humidity | Pressure | Rain* | Wind** | Luminosity | Snow |
|---|---|---|---|---|---|---|---|
| 1777680489 | 12.78° C | 99% | 1013.1 hPa | 10.16 mm | - | 1 W/m² | - |
| 1777680187 | 12.78° C | 99% | 1012.2 hPa | 6.1 mm | - | 0 W/m² | - |
| 1777679882 | 12.78° C | 99% | 1012.3 hPa | 6.1 mm | - | 1 W/m² | - |
| 1777679579 | 12.78° C | 99% | 1012.4 hPa | 3.05 mm | - | 1 W/m² | - |
| 1777679274 | 12.78° C | 99% | 1011.7 hPa | 3.05 mm | - | 1 W/m² | - |
| 1777678971 | 12.78° C | 99% | 1012.2 hPa | 6.1 mm | - | 3 W/m² | - |
| 1777678670 | 12.78° C | 99% | 1012.2 hPa | 6.1 mm | - | 5 W/m² | - |
| 1777678367 | 12.78° C | 99% | 1012.2 hPa | 4.83 mm | - | 5 W/m² | - |
| 1777678062 | 12.78° C | 99% | 1012.4 hPa | 1.78 mm | - | 2 W/m² | - |
| 1777677759 | 12.78° C | 99% | 1012.2 hPa | 1.27 mm | - | 2 W/m² | - |
| 1777677457 | 12.78° C | 99% | 1011.7 hPa | 3.05 mm | - | 8 W/m² | - |
| 1777677155 | 12.78° C | 99% | 1012 hPa | 1.78 mm | - | 8 W/m² | - |
| 1777676853 | 12.78° C | 99% | 1012 hPa | 1.27 mm | - | 6 W/m² | - |
| 1777676552 | 12.78° C | 99% | 1012 hPa | 3.05 mm | - | 6 W/m² | - |
| 1777676249 | 12.78° C | 99% | 1012 hPa | 3.05 mm | - | 7 W/m² | - |
| 1777675946 | 12.78° C | 99% | 1012.3 hPa | 3.05 mm | - | 9 W/m² | - |
| 1777675642 | 12.78° C | 99% | 1012.7 hPa | 7.87 mm | - | 6 W/m² | - |
| 1777675340 | 12.78° C | 99% | 1012.2 hPa | 9.65 mm | - | 12 W/m² | - |
| 1777675036 | 12.78° C | 99% | 1012.6 hPa | 3.56 mm | - | 14 W/m² | - |
| 1777674732 | 12.78° C | 99% | 1013.2 hPa | 1.27 mm | - | 9 W/m² | - |
| 1777674429 | 12.78° C | 99% | 1012 hPa | 1.27 mm | - | 6 W/m² | - |
| 1777674127 | 12.78° C | 99% | 1011.7 hPa | 1.78 mm | - | 12 W/m² | - |
| 1777673822 | 12.78° C | 99% | 1011.7 hPa | 0 mm | - | 24 W/m² | - |
| 1777673519 | 12.78° C | 99% | 1012.1 hPa | 1.27 mm | - | 29 W/m² | - |
| 1777673217 | 12.78° C | 99% | 1012.1 hPa | 4.32 mm | - | 27 W/m² | - |
* Rain latest hour (hover to see other rain measurements)
** Current wind speed in m/s (hover to see current wind gust speed)